This is the latest recevied weather packets stored in our database for station/object WW3TRG. If no packets are shown the sender has not sent any weather packets the latest 10 day(s).
| Time | Temp. | Humidity | Pressure | Rain* | Wind** | Luminosity | Snow |
|---|---|---|---|---|---|---|---|
| 1777154180 | 5.56° C | 99% | 1014.4 hPa | 3.56 mm | - | 4 W/m² | - |
| 1777153877 | 5.56° C | 99% | 1013.8 hPa | 5.33 mm | - | 10 W/m² | - |
| 1777153574 | 5.56° C | 99% | 1013.8 hPa | 4.83 mm | - | 6 W/m² | - |
| 1777153269 | 5.56° C | 99% | 1013.7 hPa | 3.56 mm | - | 6 W/m² | - |
| 1777152965 | 5.56° C | 99% | 1013.4 hPa | 3.05 mm | - | 4 W/m² | - |
| 1777152663 | 5.56° C | 99% | 1013.1 hPa | 3.05 mm | - | 7 W/m² | - |
| 1777152359 | 5.56° C | 99% | 1013.2 hPa | 3.05 mm | - | 20 W/m² | - |
| 1777152055 | 5.56° C | 99% | 1013 hPa | 3.05 mm | - | 20 W/m² | - |
| 1777151750 | 5.56° C | 99% | 1013.3 hPa | 2.29 mm | - | 18 W/m² | - |
| 1777151447 | 5.56° C | 99% | 1013.1 hPa | 2.29 mm | - | 23 W/m² | - |
| 1777151143 | 6.11° C | 99% | 1013.5 hPa | 3.05 mm | - | 24 W/m² | - |
| 1777150837 | 5.56° C | 99% | 1013.3 hPa | 2.29 mm | - | 12 W/m² | - |
| 1777150532 | 5.56° C | 99% | 1013.4 hPa | 2.29 mm | - | 21 W/m² | - |
| 1777150228 | 6.11° C | 99% | 1013.7 hPa | 1.78 mm | - | 20 W/m² | - |
| 1777149927 | 6.11° C | 99% | 1013.4 hPa | 2.29 mm | - | 26 W/m² | - |
| 1777149626 | 6.11° C | 99% | 1013.8 hPa | 2.29 mm | - | 28 W/m² | - |
| 1777149324 | 6.11° C | 99% | 1013.6 hPa | 2.29 mm | - | 33 W/m² | - |
| 1777149020 | 6.11° C | 99% | 1013.5 hPa | 3.05 mm | - | 29 W/m² | - |
| 1777148715 | 6.11° C | 99% | 1013.6 hPa | 3.05 mm | - | 38 W/m² | - |
| 1777148410 | 6.11° C | 99% | 1013.8 hPa | 3.05 mm | - | 44 W/m² | - |
| 1777148108 | 6.11° C | 99% | 1014.4 hPa | 3.05 mm | - | 13 W/m² | - |
| 1777147803 | 6.11° C | 99% | 1014.2 hPa | 2.29 mm | - | 32 W/m² | - |
| 1777147499 | 6.11° C | 99% | 1014.1 hPa | 2.29 mm | - | 26 W/m² | - |
| 1777147195 | 6.11° C | 99% | 1014.7 hPa | 3.05 mm | - | 18 W/m² | - |
| 1777146891 | 6.11° C | 99% | 1014.1 hPa | 3.05 mm | - | 26 W/m² | - |
* Rain latest hour (hover to see other rain measurements)
** Current wind speed in m/s (hover to see current wind gust speed)